User: anonymous   Login
Location: Newark
(35.2672°N, 80.7344°W)
Time: 07:38:31
(UTC+00:00)
Language:

A-11 Canister half - Orbit

View from above orbital plane
View from above orbital plane
View from above satellite
View from above satellite

Ground track
Ground track

The orbit data is extracted from the following two-line orbital elements,

1    53U 60009E   20021.23826840 -.00000002 +00000-0 +81665-3 0  9993
2    53 047.2784 356.0583 0099368 002.2177 357.9036 12.17236656650515
Epoch (UTC): 21 January 2020 05:43:06
Eccentricity: 0.0099368
inclination: 47.2784°
perigee height: 1525 km
apogee height: 1684 km
right ascension of ascending node: 356.0583°
argument of perigee: 2.2177°
revolutions per day: 12.17236656
mean anomaly at epoch: 357.9036°
orbit number at epoch: 65051

The dashed part of the orbit path shows where the satellite is in the earth's shadow,  

DLR